| time (UTC) | temp F | wind direction | speed MPH | gust MPH | rain 1hr in | rain 24hr in | rain mn in | humidity % | barometer mb |
| 20260903085101 | 82 | 162 | 3.0 | 6.0 | 0.00 | 0.00 | 0.00 | 44 | 1021.7 |
| 20260903084541 | 82 | 156 | 0.0 | 0.0 | 0.00 | 0.00 | 0.00 | 50 | 1021.8 |
| 20260903084051 | 81 | 156 | 0.0 | 0.0 | 0.00 | 0.00 | 0.00 | 48 | 1021.9 |
| 20260903083535 | 81 | 162 | 0.0 | 0.0 | 0.00 | 0.00 | 0.00 | 50 | 1021.7 |
| 20260903083051 | 81 | 163 | 0.0 | 0.0 | 0.00 | 0.00 | 0.00 | 49 | 1021.7 |
| 20260903082551 | 81 | 160 | 0.0 | 0.0 | 0.00 | 0.00 | 0.00 | 49 | 1021.7 |
| 20260903082043 | 80 | 160 | 0.0 | 0.0 | 0.00 | 0.00 | 0.00 | 49 | 1021.8 |
| 20260903081545 | 80 | 168 | 0.0 | 6.0 | 0.00 | 0.00 | 0.00 | 49 | 1021.7 |
| 20260903081050 | 80 | 149 | 0.0 | 7.0 | 0.00 | 0.00 | 0.00 | 50 | 1021.7 |
| 20260903080531 | 80 | 142 | 2.0 | 5.0 | 0.00 | 0.00 | 0.00 | 53 | 1021.7 |
| 20260903080039 | 80 | 161 | 0.0 | 0.0 | 0.00 | 0.00 | 0.00 | 54 | 1021.6 |
| 20260903075542 | 80 | 161 | 0.0 | 0.0 | 0.00 | 0.00 | 0.00 | 55 | 1021.6 |
| 20260903075050 | 79 | 161 | 0.0 | 0.0 | 0.00 | 0.00 | 0.00 | 57 | 1021.5 |
| 20260903074610 | 79 | 162 | 0.0 | 0.0 | 0.00 | 0.00 | 0.00 | 58 | 1021.4 |
| 20260903074035 | 79 | 160 | 0.0 | 0.0 | 0.00 | 0.00 | 0.00 | 61 | 1021.3 |
| 20260903073533 | 79 | 160 | 0.0 | 0.0 | 0.00 | 0.00 | 0.00 | 61 | 1021.3 |
| 20260903073042 | 78 | 160 | 0.0 | 0.0 | 0.00 | 0.00 | 0.00 | 62 | 1021.2 |
| 20260903072541 | 78 | 160 | 0.0 | 0.0 | 0.00 | 0.00 | 0.00 | 62 | 1021.2 |
| 20260903072100 | 77 | 160 | 0.0 | 0.0 | 0.00 | 0.00 | 0.00 | 62 | 1021.2 |
| 20260903071534 | 77 | 160 | 0.0 | 0.0 | 0.00 | 0.00 | 0.00 | 64 | 1021.2 |
| 20260903071044 | 77 | 160 | 0.0 | 0.0 | 0.00 | 0.00 | 0.00 | 63 | 1021.2 |
| 20260903070545 | 77 | 222 | 0.0 | 0.0 | 0.00 | 0.00 | 0.00 | 65 | 1021.1 |
| 20260903070033 | 77 | 226 | 0.0 | 0.0 | 0.00 | 0.00 | 0.00 | 66 | 1021.1 |
| 20260903065537 | 76 | 226 | 0.0 | 5.0 | 0.00 | 0.00 | 0.00 | 67 | 1021.1 |
| 20260903065045 | 76 | 216 | 1.0 | 5.0 | 0.00 | 0.00 | 0.00 | 66 | 1021.1 |
| 20260903064540 | 77 | 247 | 3.0 | 5.0 | 0.00 | 0.00 | 0.00 | 64 | 1021.0 |
| 20260903064048 | 76 | 300 | 0.0 | 0.0 | 0.00 | 0.00 | 0.00 | 62 | 1021.0 |
| 20260903063607 | 76 | 301 | 0.0 | 0.0 | 0.00 | 0.00 | 0.00 | 68 | 1021.0 |
| 20260903063035 | 75 | 300 | 0.0 | 0.0 | 0.00 | 0.00 | 0.00 | 69 | 1021.1 |
| 20260903062537 | 75 | 300 | 0.0 | 0.0 | 0.00 | 0.00 | 0.00 | 70 | 1021.1 |
| 20260903062047 | 74 | 301 | 0.0 | 0.0 | 0.00 | 0.00 | 0.00 | 70 | 1021.0 |
| 20260903061550 | 73 | 301 | 0.0 | 0.0 | 0.00 | 0.00 | 0.00 | 68 | 1020.9 |
| 20260903061033 | 73 | 301 | 0.0 | 0.0 | 0.00 | 0.00 | 0.00 | 69 | 1020.9 |
| 20260903060534 | 73 | 301 | 0.0 | 0.0 | 0.00 | 0.00 | 0.00 | 69 | 1020.8 |
| 20260903060040 | 73 | 301 | 0.0 | 0.0 | 0.00 | 0.00 | 0.00 | 70 | 1020.7 |
| 20260903055602 | 72 | 301 | 0.0 | 0.0 | 0.00 | 0.00 | 0.00 | 71 | 1020.7 |
| 20260903055050 | 72 | 301 | 0.0 | 0.0 | 0.00 | 0.00 | 0.00 | 71 | 1020.7 |
| 20260903054612 | 71 | 301 | 0.0 | 0.0 | 0.00 | 0.00 | 0.00 | 70 | 1020.6 |
| 20260903054035 | 71 | 301 | 0.0 | 0.0 | 0.00 | 0.00 | 0.00 | 70 | 1020.5 |
| 20260903053536 | 71 | 301 | 0.0 | 0.0 | 0.00 | 0.00 | 0.00 | 70 | 1020.4 |
| 20260903053038 | 70 | 301 | 0.0 | 0.0 | 0.00 | 0.00 | 0.00 | 71 | 1020.3 |
| 20260903052542 | 70 | 300 | 0.0 | 0.0 | 0.00 | 0.00 | 0.00 | 72 | 1020.3 |
| 20260903052049 | 70 | 301 | 0.0 | 0.0 | 0.00 | 0.00 | 0.00 | 72 | 1020.2 |
| 20260903051545 | 70 | 300 | 0.0 | 0.0 | 0.00 | 0.00 | 0.00 | 72 | 1020.3 |
| 20260903051035 | 70 | 301 | 0.0 | 0.0 | 0.00 | 0.00 | 0.00 | 73 | 1020.3 |
| 20260903050538 | 69 | 300 | 0.0 | 1.0 | 0.00 | 0.00 | 0.00 | 75 | 1020.3 |
| 20260903050046 | 69 | 301 | 0.0 | 1.0 | 0.00 | 0.00 | 0.00 | 73 | 1020.2 |
| 20260903045544 | 70 | 300 | 0.0 | 1.0 | 0.00 | 0.00 | 0.00 | 71 | 1020.2 |
| 20260903045035 | 70 | 301 | 0.0 | 0.0 | 0.00 | 0.00 | 0.00 | 72 | 1020.1 |
| 20260903044538 | 70 | 301 | 0.0 | 0.0 | 0.00 | 0.00 | 0.00 | 74 | 1020.1 |
| 20260903044056 | 70 | 300 | 0.0 | 0.0 | 0.00 | 0.00 | 0.00 | 74 | 1019.9 |
| 20260903043532 | 70 | 301 | 0.0 | 0.0 | 0.00 | 0.00 | 0.00 | 73 | 1020.0 |
| 20260903043042 | 70 | 301 | 0.0 | 0.0 | 0.00 | 0.00 | 0.00 | 73 | 1020.0 |
| 20260903042545 | 70 | 301 | 0.0 | 1.0 | 0.00 | 0.00 | 0.00 | 73 | 1020.0 |
| 20260903042035 | 70 | 301 | 0.0 | 2.0 | 0.00 | 0.00 | 0.00 | 73 | 1020.0 |
| 20260903041538 | 70 | 299 | 0.0 | 0.0 | 0.00 | 0.00 | 0.00 | 73 | 1019.9 |
| 20260903041045 | 70 | 299 | 0.0 | 0.0 | 0.00 | 0.00 | 0.00 | 73 | 1019.9 |
| 20260903040548 | 70 | 299 | 0.0 | 1.0 | 0.00 | 0.00 | 0.00 | 73 | 1019.9 |
| 20260903040035 | 70 | 299 | 0.0 | 4.0 | 0.00 | 0.00 | 0.00 | 73 | 1019.9 |
| 20260903035539 | 70 | 299 | 1.0 | 4.0 | 0.00 | 0.00 | 0.00 | 73 | 1020.0 |
| 20260903035036 | 70 | 299 | 1.0 | 3.0 | 0.00 | 0.00 | 0.00 | 73 | 1019.9 |
| 20260903034559 | 70 | 299 | 0.0 | 0.0 | 0.00 | 0.00 | 0.00 | 74 | 1019.9 |
| 20260903034044 | 70 | 299 | 0.0 | 0.0 | 0.00 | 0.00 | 0.00 | 74 | 1019.9 |
| 20260903033550 | 70 | 299 | 0.0 | 0.0 | 0.00 | 0.00 | 0.00 | 74 | 1020.0 |
| 20260903033041 | 70 | 299 | 0.0 | 0.0 | 0.00 | 0.00 | 0.00 | 73 | 1020.0 |
| 20260903032541 | 71 | 299 | 0.0 | 0.0 | 0.00 | 0.00 | 0.00 | 73 | 1020.1 |
| 20260903032049 | 71 | 250 | 0.0 | 6.0 | 0.00 | 0.00 | 0.00 | 73 | 1020.0 |
| 20260903031611 | 71 | 249 | 1.0 | 6.0 | 0.00 | 0.00 | 0.00 | 74 | 1019.9 |
| 20260903031039 | 71 | 302 | 0.0 | 0.0 | 0.00 | 0.00 | 0.00 | 74 | 1019.9 |
| 20260903030602 | 71 | 302 | 0.0 | 2.0 | 0.00 | 0.00 | 0.00 | 74 | 1019.8 |
| 20260903030057 | 70 | 302 | 0.0 | 2.0 | 0.00 | 0.00 | 0.00 | 74 | 1019.9 |
| 20260903025532 | 70 | 310 | 0.0 | 0.0 | 0.00 | 0.00 | 0.00 | 74 | 1019.8 |
| 20260903025041 | 70 | 310 | 0.0 | 3.0 | 0.00 | 0.00 | 0.00 | 74 | 1019.8 |
| 20260903024542 | 70 | 310 | 0.0 | 3.0 | 0.00 | 0.00 | 0.00 | 74 | 1019.8 |
| 20260903024039 | 71 | 310 | 0.0 | 3.0 | 0.00 | 0.00 | 0.00 | 74 | 1019.9 |
| 20260903023544 | 71 | 310 | 0.0 | 0.0 | 0.00 | 0.00 | 0.00 | 74 | 1019.9 |
| 20260903023119 | 71 | 310 | 0.0 | 0.0 | 0.00 | 0.00 | 0.00 | 74 | 1019.9 |
| 20260903022535 | 71 | 310 | 0.0 | 0.0 | 0.00 | 0.00 | 0.00 | 75 | 1019.9 |
| 20260903022045 | 71 | 310 | 0.0 | 0.0 | 0.00 | 0.00 | 0.00 | 75 | 1019.8 |
| 20260903021546 | 71 | 310 | 0.0 | 0.0 | 0.00 | 0.00 | 0.00 | 75 | 1019.8 |
| 20260903021033 | 71 | 310 | 0.0 | 0.0 | 0.00 | 0.00 | 0.00 | 73 | 1019.8 |
| 20260903020537 | 71 | 310 | 0.0 | 0.0 | 0.00 | 0.00 | 0.00 | 73 | 1019.8 |
| 20260903020053 | 72 | 310 | 0.0 | 0.0 | 0.00 | 0.00 | 0.00 | 73 | 1019.8 |
| 20260903015549 | 72 | 310 | 0.0 | 0.0 | 0.00 | 0.00 | 0.00 | 73 | 1019.9 |
| 20260903015040 | 72 | 310 | 0.0 | 0.0 | 0.00 | 0.00 | 0.00 | 73 | 1019.9 |
| 20260903014604 | 72 | 310 | 0.0 | 0.0 | 0.00 | 0.00 | 0.00 | 74 | 1019.8 |
| 20260903014032 | 72 | 310 | 0.0 | 0.0 | 0.00 | 0.00 | 0.00 | 74 | 1019.9 |
| 20260903013532 | 72 | 310 | 0.0 | 0.0 | 0.00 | 0.00 | 0.00 | 74 | 1019.8 |
| 20260903013048 | 72 | 310 | 0.0 | 0.0 | 0.00 | 0.00 | 0.00 | 74 | 1019.8 |
| 20260903012550 | 72 | 310 | 0.0 | 0.0 | 0.00 | 0.00 | 0.00 | 75 | 1019.8 |
| 20260903012036 | 72 | 310 | 0.0 | 3.0 | 0.00 | 0.00 | 0.00 | 75 | 1019.7 |
| 20260903011541 | 72 | 310 | 1.0 | 4.0 | 0.00 | 0.00 | 0.00 | 75 | 1019.7 |
| 20260903011038 | 71 | 310 | 3.0 | 4.0 | 0.00 | 0.00 | 0.00 | 76 | 1019.8 |
| 20260903010538 | 72 | 310 | 1.0 | 4.0 | 0.00 | 0.00 | 0.00 | 74 | 1019.9 |
| 20260903010058 | 72 | 310 | 0.0 | 2.0 | 0.00 | 0.00 | 0.00 | 74 | 1019.9 |
| 20260903005537 | 72 | 310 | 0.0 | 0.0 | 0.00 | 0.00 | 0.00 | 73 | 1019.9 |
| 20260903005041 | 72 | 310 | 0.0 | 0.0 | 0.00 | 0.00 | 0.00 | 74 | 1019.8 |
| 20260903004544 | 72 | 310 | 0.0 | 0.0 | 0.00 | 0.00 | 0.00 | 74 | 1019.8 |
| 20260903004053 | 73 | 310 | 0.0 | 0.0 | 0.00 | 0.00 | 0.00 | 73 | 1019.8 |
| 20260903003535 | 73 | 310 | 0.0 | 0.0 | 0.00 | 0.00 | 0.00 | 72 | 1019.8 |
| 20260903003047 | 73 | 310 | 0.0 | 2.0 | 0.00 | 0.00 | 0.00 | 71 | 1019.7 |
| 20260903002609 | 73 | 310 | 0.0 | 4.0 | 0.00 | 0.00 | 0.00 | 72 | 1019.7 |
| 20260903002054 | 73 | 310 | 1.0 | 4.0 | 0.00 | 0.00 | 0.00 | 72 | 1019.7 |
| 20260903001535 | 73 | 310 | 1.0 | 4.0 | 0.00 | 0.00 | 0.00 | 72 | 1019.7 |
| 20260903001051 | 73 | 310 | 2.0 | 4.0 | 0.00 | 0.00 | 0.00 | 73 | 1019.7 |
| 20260903000551 | 73 | 312 | 1.0 | 4.0 | 0.00 | 0.00 | 0.00 | 73 | 1019.8 |
| 20260903000044 | 73 | 328 | 0.0 | 2.0 | 0.00 | 0.00 | 0.00 | 72 | 1019.7 |
| 20260902235548 | 74 | 328 | 0.0 | 0.0 | 0.00 | 0.00 | 0.00 | 72 | 1019.7 |
| 20260902235036 | 74 | 328 | 0.0 | 0.0 | 0.00 | 0.00 | 0.00 | 71 | 1019.7 |
| 20260902234539 | 74 | 328 | 0.0 | 0.0 | 0.00 | 0.00 | 0.00 | 71 | 1019.8 |
| 20260902234041 | 74 | 328 | 0.0 | 0.0 | 0.00 | 0.00 | 0.00 | 71 | 1019.7 |
| 20260902233543 | 74 | 328 | 0.0 | 0.0 | 0.00 | 0.00 | 0.00 | 71 | 1019.8 |
| 20260902233033 | 74 | 328 | 0.0 | 4.0 | 0.00 | 0.00 | 0.00 | 72 | 1019.7 |
| 20260902232535 | 74 | 328 | 0.0 | 4.0 | 0.00 | 0.00 | 0.00 | 71 | 1019.7 |
| 20260902232042 | 74 | 339 | 0.0 | 0.0 | 0.00 | 0.00 | 0.00 | 71 | 1019.7 |
| 20260902231546 | 74 | 343 | 0.0 | 0.0 | 0.00 | 0.00 | 0.00 | 72 | 1019.7 |
| 20260902231034 | 74 | 343 | 0.0 | 0.0 | 0.00 | 0.00 | 0.00 | 72 | 1019.6 |
| 20260902230536 | 74 | 343 | 0.0 | 0.0 | 0.00 | 0.00 | 0.00 | 72 | 1019.6 |
| 20260902230043 | 74 | 343 | 0.0 | 0.0 | 0.00 | 0.00 | 0.00 | 72 | 1019.6 |
| 20260902225548 | 74 | 343 | 0.0 | 0.0 | 0.00 | 0.00 | 0.00 | 72 | 1019.5 |
| 20260902225102 | 74 | 347 | 0.0 | 0.0 | 0.00 | 0.00 | 0.00 | 73 | 1019.6 |
| 20260902224543 | 74 | 359 | 0.0 | 0.0 | 0.00 | 0.00 | 0.00 | 74 | 1019.5 |
| 20260902224034 | 74 | 132 | 0.0 | 0.0 | 0.00 | 0.00 | 0.00 | 74 | 1019.6 |
| 20260902223534 | 74 | 132 | 0.0 | 0.0 | 0.00 | 0.00 | 0.00 | 73 | 1019.5 |
| 20260902223041 | 75 | 133 | 0.0 | 0.0 | 0.00 | 0.00 | 0.00 | 72 | 1019.5 |
| 20260902222544 | 75 | 132 | 0.0 | 0.0 | 0.00 | 0.00 | 0.00 | 72 | 1019.5 |
| 20260902222032 | 75 | 341 | 0.0 | 0.0 | 0.00 | 0.00 | 0.00 | 71 | 1019.5 |
| 20260902221537 | 75 | 341 | 0.0 | 0.0 | 0.00 | 0.00 | 0.00 | 71 | 1019.4 |
| 20260902221046 | 75 | 341 | 0.0 | 0.0 | 0.00 | 0.00 | 0.00 | 71 | 1019.4 |
| 20260902220546 | 75 | 341 | 0.0 | 0.0 | 0.00 | 0.00 | 0.00 | 72 | 1019.4 |
| 20260902220121 | 75 | 341 | 0.0 | 0.0 | 0.00 | 0.00 | 0.00 | 72 | 1019.5 |
| 20260902215535 | 75 | 341 | 0.0 | 2.0 | 0.00 | 0.00 | 0.00 | 72 | 1019.5 |
| 20260902215044 | 75 | 341 | 0.0 | 3.0 | 0.00 | 0.00 | 0.00 | 72 | 1019.5 |
| 20260902214609 | 76 | 341 | 0.0 | 5.0 | 0.00 | 0.00 | 0.00 | 71 | 1019.5 |
| 20260902214037 | 76 | 342 | 3.0 | 5.0 | 0.00 | 0.00 | 0.00 | 71 | 1019.5 |
| 20260902213540 | 76 | 348 | 3.0 | 5.0 | 0.00 | 0.00 | 0.00 | 71 | 1019.4 |
| 20260902213032 | 76 | 343 | 0.0 | 0.0 | 0.00 | 0.00 | 0.00 | 70 | 1019.4 |
| 20260902212551 | 77 | 343 | 0.0 | 8.0 | 0.00 | 0.00 | 0.00 | 69 | 1019.3 |
| 20260902212038 | 77 | 339 | 2.0 | 8.0 | 0.00 | 0.00 | 0.00 | 68 | 1019.3 |
| 20260902211541 | 77 | 337 | 4.0 | 9.0 | 0.00 | 0.00 | 0.00 | 68 | 1019.2 |
| 20260902211118 | 77 | 319 | 5.0 | 9.0 | 0.00 | 0.00 | 0.00 | 69 | 1019.2 |
| 20260902210532 | 76 | 329 | 4.0 | 9.0 | 0.00 | 0.00 | 0.00 | 70 | 1019.2 |
| 20260902210040 | 76 | 303 | 3.0 | 5.0 | 0.00 | 0.00 | 0.00 | 71 | 1019.2 |
| 20260902205543 | 76 | 318 | 0.0 | 1.0 | 0.00 | 0.00 | 0.00 | 71 | 1019.2 |
| 20260902205032 | 76 | 318 | 0.0 | 0.0 | 0.00 | 0.00 | 0.00 | 71 | 1019.1 |
| 20260902204534 | 76 | 318 | 0.0 | 0.0 | 0.00 | 0.00 | 0.00 | 71 | 1019.2 |
| 20260902204036 | 76 | 318 | 0.0 | 0.0 | 0.00 | 0.00 | 0.00 | 71 | 1019.2 |
| 20260902203540 | 76 | 318 | 0.0 | 0.0 | 0.00 | 0.00 | 0.00 | 71 | 1019.2 |
| 20260902203059 | 77 | 318 | 0.0 | 0.0 | 0.00 | 0.00 | 0.00 | 70 | 1019.2 |
| 20260902202537 | 77 | 318 | 0.0 | 3.0 | 0.00 | 0.00 | 0.00 | 70 | 1019.1 |
| 20260902202058 | 77 | 318 | 0.0 | 4.0 | 0.00 | 0.00 | 0.00 | 70 | 1019.1 |
| 20260902201535 | 76 | 314 | 1.0 | 4.0 | 0.00 | 0.00 | 0.00 | 71 | 1019.1 |
| 20260902201042 | 76 | 314 | 0.0 | 3.0 | 0.00 | 0.00 | 0.00 | 71 | 1019.1 |
| 20260902200542 | 77 | 314 | 0.0 | 6.0 | 0.00 | 0.00 | 0.00 | 71 | 1019.0 |
| 20260902200055 | 76 | 314 | 2.0 | 6.0 | 0.00 | 0.00 | 0.00 | 71 | 1019.0 |
| 20260902195532 | 76 | 320 | 2.0 | 5.0 | 0.00 | 0.00 | 0.00 | 72 | 1019.0 |
| 20260902195043 | 76 | 324 | 0.0 | 0.0 | 0.00 | 0.00 | 0.00 | 72 | 1019.0 |
| 20260902194547 | 76 | 324 | 0.0 | 3.0 | 0.00 | 0.00 | 0.00 | 72 | 1019.0 |
| 20260902194035 | 76 | 324 | 0.0 | 3.0 | 0.00 | 0.00 | 0.00 | 72 | 1019.0 |
| 20260902193541 | 76 | 324 | 0.0 | 3.0 | 0.00 | 0.00 | 0.00 | 71 | 1018.9 |
| 20260902193059 | 77 | 324 | 0.0 | 3.0 | 0.00 | 0.00 | 0.00 | 71 | 1018.8 |
| 20260902192534 | 77 | 324 | 1.0 | 3.0 | 0.00 | 0.00 | 0.00 | 70 | 1018.8 |
| 20260902192043 | 77 | 326 | 0.0 | 2.0 | 0.00 | 0.00 | 0.00 | 70 | 1018.7 |
| 20260902191548 | 77 | 327 | 0.0 | 1.0 | 0.00 | 0.00 | 0.00 | 70 | 1018.8 |
| 20260902191040 | 78 | 327 | 0.0 | 0.0 | 0.00 | 0.00 | 0.00 | 68 | 1018.7 |
| 20260902190543 | 78 | 327 | 0.0 | 0.0 | 0.00 | 0.00 | 0.00 | 68 | 1018.7 |
| 20260902190034 | 78 | 327 | 0.0 | 0.0 | 0.00 | 0.00 | 0.00 | 68 | 1018.7 |
| 20260902185538 | 79 | 327 | 0.0 | 0.0 | 0.00 | 0.00 | 0.00 | 67 | 1018.6 |
| 20260902185056 | 79 | 327 | 0.0 | 0.0 | 0.00 | 0.00 | 0.00 | 66 | 1018.5 |
| 20260902184532 | 79 | 328 | 0.0 | 4.0 | 0.00 | 0.00 | 0.00 | 66 | 1018.4 |
| 20260902184039 | 79 | 333 | 0.0 | 1.0 | 0.00 | 0.00 | 0.00 | 66 | 1018.4 |
| 20260902183601 | 80 | 334 | 0.0 | 1.0 | 0.00 | 0.00 | 0.00 | 65 | 1018.4 |
| 20260902183055 | 80 | 335 | 0.0 | 5.0 | 0.00 | 0.00 | 0.00 | 64 | 1018.2 |
| 20260902182533 | 80 | 320 | 2.0 | 8.0 | 0.00 | 0.00 | 0.00 | 64 | 1018.1 |
| 20260902182041 | 80 | 323 | 2.0 | 8.0 | 0.00 | 0.00 | 0.00 | 64 | 1018.1 |
| 20260902181605 | 80 | 295 | 2.0 | 8.0 | 0.00 | 0.00 | 0.00 | 65 | 1018.1 |
| 20260902181035 | 80 | 326 | 2.0 | 6.0 | 0.00 | 0.00 | 0.00 | 65 | 1018.1 |
| 20260902180538 | 80 | 318 | 2.0 | 6.0 | 0.00 | 0.00 | 0.00 | 65 | 1018.1 |
| 20260902180041 | 80 | 318 | 2.0 | 8.0 | 0.00 | 0.00 | 0.00 | 64 | 1018.2 |
| 20260902175542 | 81 | 326 | 4.0 | 8.0 | 0.00 | 0.00 | 0.00 | 64 | 1018.1 |
| 20260902175034 | 81 | 308 | 1.0 | 6.0 | 0.00 | 0.00 | 0.00 | 63 | 1018.2 |
| 20260902174535 | 81 | 320 | 2.0 | 6.0 | 0.00 | 0.00 | 0.00 | 63 | 1018.1 |
| 20260902174040 | 81 | 321 | 2.0 | 6.0 | 0.00 | 0.00 | 0.00 | 63 | 1018.1 |
| 20260902173544 | 80 | 316 | 1.0 | 4.0 | 0.00 | 0.00 | 0.00 | 63 | 1018.0 |
| 20260902173036 | 80 | 129 | 0.0 | 0.0 | 0.00 | 0.00 | 0.00 | 63 | 1018.1 |
| 20260902172540 | 81 | 131 | 0.0 | 0.0 | 0.00 | 0.00 | 0.00 | 62 | 1018.0 |
| 20260902172056 | 81 | 131 | 0.0 | 0.0 | 0.00 | 0.00 | 0.00 | 61 | 1018.1 |
| 20260902171537 | 82 | 131 | 0.0 | 0.0 | 0.00 | 0.00 | 0.00 | 61 | 1018.0 |
| 20260902171043 | 83 | 131 | 0.0 | 0.0 | 0.00 | 0.00 | 0.00 | 60 | 1018.0 |
| 20260902170607 | 83 | 131 | 0.0 | 0.0 | 0.00 | 0.00 | 0.00 | 58 | 1018.1 |
| 20260902170036 | 84 | 131 | 0.0 | 0.0 | 0.00 | 0.00 | 0.00 | 57 | 1018.0 |
| 20260902165536 | 84 | 131 | 0.0 | 0.0 | 0.00 | 0.00 | 0.00 | 56 | 1018.0 |
| 20260902165048 | 85 | 131 | 0.0 | 0.0 | 0.00 | 0.00 | 0.00 | 56 | 1017.9 |
| 20260902164553 | 85 | 131 | 0.0 | 0.0 | 0.00 | 0.00 | 0.00 | 56 | 1017.9 |
| 20260902164040 | 86 | 131 | 0.0 | 0.0 | 0.00 | 0.00 | 0.00 | 55 | 1017.9 |
| 20260902163542 | 86 | 131 | 0.0 | 0.0 | 0.00 | 0.00 | 0.00 | 52 | 1017.9 |
| 20260902163034 | 86 | 131 | 0.0 | 0.0 | 0.00 | 0.00 | 0.00 | 52 | 1018.0 |
| 20260902162539 | 85 | 131 | 0.0 | 0.0 | 0.00 | 0.00 | 0.00 | 52 | 1017.9 |
| 20260902162118 | 85 | 131 | 0.0 | 0.0 | 0.00 | 0.00 | 0.00 | 52 | 1017.9 |
| 20260902161532 | 85 | 131 | 0.0 | 0.0 | 0.00 | 0.00 | 0.00 | 53 | 1017.9 |
| 20260902161038 | 86 | 131 | 0.0 | 0.0 | 0.00 | 0.00 | 0.00 | 54 | 1017.9 |
| 20260902160542 | 86 | 131 | 0.0 | 0.0 | 0.00 | 0.00 | 0.00 | 53 | 1018.0 |
| 20260902160047 | 86 | 131 | 0.0 | 3.0 | 0.00 | 0.00 | 0.00 | 53 | 1018.0 |
| 20260902155552 | 86 | 131 | 0.0 | 5.0 | 0.00 | 0.00 | 0.00 | 53 | 1018.0 |
| 20260902155041 | 86 | 158 | 1.0 | 5.0 | 0.00 | 0.00 | 0.00 | 53 | 1018.0 |
| 20260902154601 | 86 | 142 | 0.0 | 0.0 | 0.00 | 0.00 | 0.00 | 52 | 1018.0 |
| 20260902154058 | 86 | 142 | 0.0 | 0.0 | 0.00 | 0.00 | 0.00 | 53 | 1018.1 |
| 20260902153531 | 86 | 142 | 0.0 | 0.0 | 0.00 | 0.00 | 0.00 | 53 | 1018.1 |
| 20260902153055 | 86 | 142 | 0.0 | 0.0 | 0.00 | 0.00 | 0.00 | 53 | 1018.1 |
| 20260902152533 | 85 | 142 | 0.0 | 0.0 | 0.00 | 0.00 | 0.00 | 53 | 1018.2 |
| 20260902152043 | 85 | 142 | 0.0 | 0.0 | 0.00 | 0.00 | 0.00 | 53 | 1018.3 |
| 20260902151543 | 85 | 142 | 0.0 | 8.0 | 0.00 | 0.00 | 0.00 | 54 | 1018.3 |
| 20260902151041 | 85 | 142 | 0.0 | 8.0 | 0.00 | 0.00 | 0.00 | 54 | 1018.4 |
| 20260902150545 | 86 | 147 | 3.0 | 7.0 | 0.00 | 0.00 | 0.00 | 54 | 1018.3 |
| 20260902150034 | 86 | 158 | 1.0 | 5.0 | 0.00 | 0.00 | 0.00 | 54 | 1018.5 |
| 20260902145538 | 87 | 158 | 0.0 | 3.0 | 0.00 | 0.00 | 0.00 | 53 | 1018.5 |
| 20260902145116 | 87 | 160 | 0.0 | 0.0 | 0.00 | 0.00 | 0.00 | 53 | 1018.5 |
| 20260902144550 | 87 | 162 | 0.0 | 5.0 | 0.00 | 0.00 | 0.00 | 53 | 1018.5 |
| 20260902144107 | 88 | 162 | 0.0 | 5.0 | 0.00 | 0.00 | 0.00 | 52 | 1018.6 |
| 20260902143549 | 88 | 279 | 0.0 | 0.0 | 0.00 | 0.00 | 0.00 | 51 | 1018.7 |
| 20260902143103 | 87 | 279 | 0.0 | 0.0 | 0.00 | 0.00 | 0.00 | 53 | 1018.7 |
| 20260902142601 | 87 | 280 | 0.0 | 0.0 | 0.00 | 0.00 | 0.00 | 53 | 1018.7 |
| 20260902142047 | 86 | 283 | 0.0 | 3.0 | 0.00 | 0.00 | 0.00 | 53 | 1018.7 |
| 20260902141545 | 86 | 257 | 0.0 | 3.0 | 0.00 | 0.00 | 0.00 | 55 | 1018.7 |
| 20260902141034 | 86 | 173 | 0.0 | 3.0 | 0.00 | 0.00 | 0.00 | 53 | 1018.8 |
| 20260902140537 | 86 | 174 | 0.0 | 3.0 | 0.00 | 0.00 | 0.00 | 54 | 1018.8 |
| 20260902140055 | 86 | 162 | 0.0 | 0.0 | 0.00 | 0.00 | 0.00 | 55 | 1018.8 |
| 20260902135531 | 85 | 161 | 0.0 | 0.0 | 0.00 | 0.00 | 0.00 | 58 | 1018.9 |
| 20260902135040 | 85 | 173 | 0.0 | 9.0 | 0.00 | 0.00 | 0.00 | 56 | 1018.9 |
| 20260902134543 | 85 | 178 | 1.0 | 9.0 | 0.00 | 0.00 | 0.00 | 58 | 1018.9 |
| 20260902134033 | 84 | 147 | 0.0 | 7.0 | 0.00 | 0.00 | 0.00 | 59 | 1018.9 |
| 20260902133536 | 84 | 169 | 2.0 | 9.0 | 0.00 | 0.00 | 0.00 | 59 | 1019.0 |
| 20260902133044 | 84 | 85 | 2.0 | 9.0 | 0.00 | 0.00 | 0.00 | 60 | 1019.0 |
| 20260902132607 | 84 | 129 | 1.0 | 6.0 | 0.00 | 0.00 | 0.00 | 60 | 1019.0 |
| 20260902132038 | 84 | 138 | 2.0 | 6.0 | 0.00 | 0.00 | 0.00 | 58 | 1019.1 |
| 20260902131540 | 85 | 150 | 0.0 | 0.0 | 0.00 | 0.00 | 0.00 | 58 | 1019.1 |
| 20260902131057 | 84 | 31 | 0.0 | 0.0 | 0.00 | 0.00 | 0.00 | 57 | 1019.2 |
| 20260902130532 | 83 | 32 | 0.0 | 0.0 | 0.00 | 0.00 | 0.00 | 59 | 1019.3 |
| 20260902130042 | 83 | 135 | 0.0 | 4.0 | 0.00 | 0.00 | 0.00 | 59 | 1019.4 |
| 20260902125602 | 84 | 135 | 2.0 | 9.0 | 0.00 | 0.00 | 0.00 | 57 | 1019.4 |
| 20260902125032 | 85 | 147 | 6.0 | 9.0 | 0.00 | 0.00 | 0.00 | 57 | 1019.4 |
| 20260902124550 | 85 | 112 | 0.0 | 0.0 | 0.00 | 0.00 | 0.00 | 56 | 1019.4 |
| 20260902124105 | 86 | 166 | 0.0 | 0.0 | 0.00 | 0.00 | 0.00 | 55 | 1019.5 |
| 20260902123546 | 86 | 181 | 0.0 | 0.0 | 0.00 | 0.00 | 0.00 | 56 | 1019.5 |
| 20260902123037 | 85 | 188 | 0.0 | 0.0 | 0.00 | 0.00 | 0.00 | 56 | 1019.6 |
| 20260902122539 | 85 | 163 | 0.0 | 0.0 | 0.00 | 0.00 | 0.00 | 56 | 1019.7 |
| 20260902122044 | 85 | 191 | 0.0 | 0.0 | 0.00 | 0.00 | 0.00 | 56 | 1019.7 |
| 20260902121545 | 85 | 29 | 0.0 | 0.0 | 0.00 | 0.00 | 0.00 | 54 | 1019.7 |
| 20260902121044 | 84 | 345 | 0.0 | 0.0 | 0.00 | 0.00 | 0.00 | 55 | 1019.7 |
| 20260902120549 | 84 | 158 | 0.0 | 0.0 | 0.00 | 0.00 | 0.00 | 57 | 1019.7 |
| 20260902120037 | 83 | 158 | 0.0 | 7.0 | 0.00 | 0.00 | 0.00 | 57 | 1019.7 |
| 20260902115542 | 83 | 163 | 0.0 | 8.0 | 0.00 | 0.00 | 0.00 | 58 | 1019.8 |
| 20260902115118 | 84 | 149 | 2.0 | 8.0 | 0.00 | 0.00 | 0.00 | 58 | 1019.9 |
| 20260902114532 | 83 | 162 | 0.0 | 12.0 | 0.00 | 0.00 | 0.00 | 58 | 1020.0 |
| 20260902114107 | 83 | 136 | 6.0 | 12.0 | 0.00 | 0.00 | 0.00 | 58 | 1020.0 |
| 20260902113547 | 84 | 172 | 0.0 | 0.0 | 0.00 | 0.00 | 0.00 | 58 | 1020.1 |
| 20260902113044 | 83 | 172 | 0.0 | 3.0 | 0.00 | 0.00 | 0.00 | 57 | 1020.1 |
| 20260902112546 | 83 | 156 | 0.0 | 4.0 | 0.00 | 0.00 | 0.00 | 59 | 1020.2 |
| 20260902112059 | 83 | 106 | 0.0 | 0.0 | 0.00 | 0.00 | 0.00 | 57 | 1020.2 |
| 20260902111532 | 82 | 77 | 0.0 | 0.0 | 0.00 | 0.00 | 0.00 | 58 | 1020.3 |
| 20260902111041 | 82 | 35 | 0.0 | 0.0 | 0.00 | 0.00 | 0.00 | 59 | 1020.4 |
| 20260902110542 | 82 | 89 | 0.0 | 7.0 | 0.00 | 0.00 | 0.00 | 60 | 1020.5 |
| 20260902110033 | 81 | 169 | 1.0 | 8.0 | 0.00 | 0.00 | 0.00 | 61 | 1020.5 |
| 20260902105538 | 82 | 146 | 0.0 | 9.0 | 0.00 | 0.00 | 0.00 | 61 | 1020.6 |
| 20260902105046 | 82 | 155 | 6.0 | 9.0 | 0.00 | 0.00 | 0.00 | 61 | 1020.6 |
| 20260902104550 | 81 | 165 | 1.0 | 8.0 | 0.00 | 0.00 | 0.00 | 61 | 1020.8 |
| 20260902104038 | 81 | 196 | 3.0 | 8.0 | 0.00 | 0.00 | 0.00 | 62 | 1020.8 |
| 20260902103540 | 81 | 182 | 2.0 | 5.0 | 0.00 | 0.00 | 0.00 | 63 | 1020.9 |
| 20260902103053 | 80 | 136 | 0.0 | 0.0 | 0.00 | 0.00 | 0.00 | 62 | 1021.0 |
| 20260902102536 | 80 | 136 | 0.0 | 0.0 | 0.00 | 0.00 | 0.00 | 63 | 1021.0 |
| 20260902102042 | 80 | 133 | 0.0 | 0.0 | 0.00 | 0.00 | 0.00 | 64 | 1021.1 |
| 20260902101545 | 80 | 129 | 0.0 | 0.0 | 0.00 | 0.00 | 0.00 | 63 | 1021.1 |
| 20260902101037 | 80 | 85 | 0.0 | 0.0 | 0.00 | 0.00 | 0.00 | 63 | 1021.1 |
| 20260902100541 | 80 | 162 | 0.0 | 5.0 | 0.00 | 0.00 | 0.00 | 63 | 1021.1 |
| 20260902100052 | 80 | 153 | 3.0 | 5.0 | 0.00 | 0.00 | 0.00 | 62 | 1021.1 |
| 20260902095534 | 80 | 213 | 0.0 | 0.0 | 0.00 | 0.00 | 0.00 | 61 | 1021.1 |
| 20260902095038 | 79 | 162 | 0.0 | 2.0 | 0.00 | 0.00 | 0.00 | 62 | 1021.2 |
| 20260902094536 | 79 | 162 | 0.0 | 6.0 | 0.00 | 0.00 | 0.00 | 62 | 1021.3 |
| 20260902094041 | 79 | 159 | 2.0 | 6.0 | 0.00 | 0.00 | 0.00 | 63 | 1021.3 |
| 20260902093542 | 78 | 160 | 0.0 | 0.0 | 0.00 | 0.00 | 0.00 | 62 | 1021.3 |
| 20260902093048 | 78 | 160 | 0.0 | 0.0 | 0.00 | 0.00 | 0.00 | 62 | 1021.2 |
| 20260902092549 | 78 | 160 | 0.0 | 3.0 | 0.00 | 0.00 | 0.00 | 61 | 1021.3 |
| 20260902092044 | 78 | 160 | 1.0 | 5.0 | 0.00 | 0.00 | 0.00 | 61 | 1021.3 |
| 20260902091545 | 77 | 175 | 0.0 | 0.0 | 0.00 | 0.00 | 0.00 | 64 | 1021.2 |
| 20260902091120 | 77 | 127 | 0.0 | 0.0 | 0.00 | 0.00 | 0.00 | 66 | 1021.3 |
| 20260902090533 | 76 | 127 | 0.0 | 0.0 | 0.00 | 0.00 | 0.00 | 65 | 1021.4 |
| 20260902090043 | 76 | 127 | 0.0 | 0.0 | 0.00 | 0.00 | 0.00 | 66 | 1021.4 |
| 20260902085546 | 76 | 127 | 0.0 | 0.0 | 0.00 | 0.00 | 0.00 | 65 | 1021.3 |